Skip Page Navigation
NASA JPL Caltech
NASA Logo - Jet Propulsion Laboratory + View the NASA Portal
+ Near-Earth Object (NEO) Program
Search JPL
JPL Home Earth Solar System Stars & Galaxies Technology
JPL Solar System Dynamics
BODIES ORBITS EPHEMERIDES TOOLS PHYSICAL DATA DISCOVERY FAQ SITE MAP
JPL Small-Body Database Browser
Search: [ help ]  
85386 Payton (1996 OU2)
Classification: Main-belt Asteroid          SPK-ID: 2085386
Ephemeris | Orbit Diagram | Orbital Elements | Physical Parameters | Discovery Circumstances ]

[ hide orbit diagram ]
Orbit Diagram
Note: Make sure you have Java enabled on your browser to see the applet. This applet is provided as a 3D orbit visualization tool. The applet was implemented using 2-body methods, and hence should not be used for determining accurate long-term trajectories (over several years or decades) or planetary encounter circumstances. For accurate long-term ephemerides, please instead use our Horizons system.
Orbit Viewer

Additional Notes: the orbits shown in the applet are color coded. The planets are white lines, and the asteroid/comet is a blue line. The bright white line indicates the portion of the orbit that is above the ecliptic plane, and the darker portion is below the ecliptic plane. Likewise for the asteroid/comet orbit, the light blue indicates the portion above the ecliptic plane, and the dark blue the portion below the ecliptic plane.

Orbit Viewer applet originally written and kindly provided by Osamu Ajiki (AstroArts), and further modified by Ron Baalke (JPL).


Orbital Elements at Epoch 2456400.5 (2013-Apr-18.0) TDB
Reference: JPL 1 (heliocentric ecliptic J2000)
 Element Value Uncertainty (1-sigma)   Units 
e .1146254378074213 1.1825e-07  
a 2.68721198294442 4.5924e-08 AU
q 2.379189132918067 3.113e-07 AU
i 13.63623611583472 1.1621e-05 deg
node 310.7819665149045 3.784e-05 deg
peri 37.79403406038108 5.8178e-05 deg
M 248.1412349070193 4.9594e-05 deg
tp 2456900.441095773109
(2014-Aug-30.94109577)
0.00023081 JED
period 1608.982490810756
4.41
4.1246e-05
1.129e-07
d
yr
n .2237438891075802 5.7356e-09 deg/d
Q 2.995234832970773 5.1188e-08 AU
  Orbit Determination Parameters
   # obs. used (total)      361  
   data-arc span      6105 days (16.71 yr)  
   first obs. used      1996-07-26  
   last obs. used      2013-04-13  
   planetary ephem.      DE405  
   SB-pert. ephem.      SB405-CPV-2  
   condition code      0  
   fit RMS      .56549  
   data source      ORB  
   producer      Otto Matic  
   solution date      2013-Apr-29 17:43:19  

Additional Information
 Earth MOID = 1.38407 AU 
 T_jup = 3.324 
[ show covariance matrix ]

Ephemeris | Orbit Diagram | Orbital Elements | Physical Parameters | Discovery Circumstances ]

Physical Parameter Table
Parameter Symbol Value Units Sigma Reference Notes
absolute magnitude H 14.4 mag n/a MPC43328  

85386 Payton           Discovered 1996 July 26 by AMOS at Haleakala.
Walter "Sweetness" Payton (1954-1999) was one of the greatest running backs ever to play in the National Football League. He is considered by many to be the best all-around football player ever. His 13-year career was with the Chicago Bears. He was inducted into the Pro Football Hall of Fame in 1993.
NOTE: some special characters may not display properly (any characters within {} are an attempt to place the proper accent above a character)
Reference: 20080520/MPCPages.arcLast Updated: 2008-05-22

Alternate Designations
 1996 OU2 = 2001 TP118 
Ephemeris | Orbit Diagram | Orbital Elements | Physical Parameters | Discovery Circumstances ]
ABOUT SSD CREDITS/AWARDS PRIVACY/COPYRIGHT GLOSSARY LINKS
FirstGov 2013-May-24 20:06 UT
(server date/time)  
NASA Home Page
Site Manager:   Donald K. Yeomans
Webmaster  Alan B. Chamberlin